Cloud_Cover
90 96 73 100 87 13 65 12 81 99 92 100 18 0 0 0 0 1 0 0 40 89 100 100 100 100 100 100 100 94 91 95 100 100 100 100 94 20 11 13 13 18 18 23
5 100 12 5 2 6 5 3 6 14 32 99 0 0 0 5 0 0 0 0 0 98 100 100 90 100 100 100 100 100 100 100 100 99 88 70 39 96 21 18 25 19 28 46
5 5 4 0 0 3 5 5 38 14 92 66 4 0 0 0 1 0 0 0 0 8 90 93 100 64 18 5 5 5 2 7 42 10 4 14 94 99 92 71 33 72 77 84
11 4 15 0 4 4 44 5 100 21 63 3 0 0 0 3 5 0 0 0 0 1 5 94 100 100 100 100 100 100 100 98 18 4 16 91 94 100 100 100 100 75 100 100
7 4 100 32 7 23 7 50 65 46 71 5 3 4 5 74 27 36 5 5 3 1 5 5 58 98 100 100 100 100 14 5 4 3 24 84 100 100 98 100 100 59 92 54
100 76 78 93 86 100 100 100 71 0 0 0 98 100 85 100 98 16 5 0 13 57 6 7 11 40 100 82 96 14 5 5 4 5 52 60 69 100 100 98 72 36 46 42
4 23 100 79 100 100 100 100 56 5 3 5 94 100 68 42 9 4 5 5 1 11 100 100 51 7 39 5 5 4 2 0 17 92 40 95 99 100 89 100 55 65 79 62
80 20 72 18 19 45 46 30 4 0 0 0 5 4 0 2 0 0 0 3 3 3 7 10 16 6 5 5 5 3 2 4 6 98 61 24 81 100 51 90 41 90 86 84
10 83 72 0 3 1 0 0 0 4 0 0 0 0 1 5 0 0 1 0 2 0 1 5 5 5 0 0 0 0 0 0 19 11 11 76 2 83 15 3 1 2 0 1
94 99 100 81 2 0 0 0 3 4 5 5 0 0 0 2 2 0 2 0 0 1 0 0 0 3 5 0 0 0 0 0 0 0 2 0 0 0 4 0 0 0 0 0
28 92 29 6 2 8 5 4 5 5 5 3 0 0 0 3 5 5 5 11 5 4 0 0 0 0 0 0 0 2 1 5 1 0 0 0 0 0 0 0 0 0 0 0
98 5 62 7 40 28 51 37 6 5 5 5 5 21 5 5 5 5 2 4 2 0 0 0 0 0 0 0 1 4 5 0 0 0 0 0 0 0 10 3 1 0 1 0
5 17 5 5 5 9 47 95 100 100 100 100 99 99 9 21 5 5 5 3 0 0 0 4 1 0 1 5 5 3 0 0 0 0 0 0 0 0 0 33 0 0 0 0
90 18 5 5 21 25 7 5 6 32 46 83 74 14 6 5 4 52 23 3 0 1 50 3 1 5 8 5 5 1 0 0 0 1 5 5 5 2 0 0 2 0 53 0
5 32 93 100 93 57 26 17 18 23 6 100 100 100 99 72 51 12 3 0 7 93 8 18 34 5 5 5 5 0 0 0 4 5 5 5 5 1 0 0 0 0 0 11
5 4 4 5 5 79 100 99 87 71 44 100 100 100 100 88 16 4 0 5 91 85 72 100 10 5 5 5 5 0 8 34 9 5 5 5 3 4 4 1 5 5 4 0
5 18 95 64 25 9 14 84 49 100 91 95 100 95 100 100 52 0 2 55 80 83 99 67 5 5 5 5 7 53 5 5 5 5 5 5 5 5 5 5 4 5 5 1
100 100 100 100 2 0 6 3 10 72 100 93 19 3 0 0 2 34 100 28 64 50 40 18 5 6 5 5 5 5 5 5 5 5 5 5 5 5 5 5 5 5 5 4
100 64 18 5 4 14 6 31 18 81 100 85 61 24 27 94 100 99 99 100 98 52 56 100 13 5 5 5 7 5 5 6 30 58 66 38 7 12 5 5 5 5 5 5
39 5 5 40 76 95 98 22 100 98 84 100 100 100 100 100 100 100 100 100 100 89 52 67 53 22 5 6 5 51 17 38 84 52 45 85 91 90 48 10 5 5 5 5
7 11 58 71 29 100 100 100 100 99 100 100 100 100 100 100 100 100 100 100 100 100 100 100 100 100 100 69 52 72 92 75 92 77 100 97 38 74 98 100 81 11 5 5
99 99 88 82 92 100 100 100 100 100 100 100 100 100 100 100 100 89 100 89 49 48 96 69 95 100 100 100 100 100 100 43 92 75 100 100 99 79 15 98 100 64 5 5
100 100 100 96 100 100 100 100 100 100 100 100 100 100 76 79 100 87 20 56 75 54 25 33 92 100 100 81 66 60 100 64 100 33 99 100 100 100 52 67 100 100 100 53
100 100 100 100 100 100 97 69 63 78 67 54 87 94 67 66 85 62 100 97 92 40 5 7 5 5 5 33 45 19 26 65 64 63 100 44 92 100 100 97 100 100 100 78
100 100 100 100 100 100 100 100 100 100 100 100 100 100 100 100 100 100 100 45 18 8 59 100 97 28 7 5 5 5 8 36 52 58 89 97 58 54 100 92 100 100 83 71
89 99 100 100 95 80 72 82 92 100 100 100 100 100 89 67 48 10 5 37 99 83 61 49 94 100 100 100 100 100 100 100 100 98 100 96 98 79 100 86 100 100 88 84
100 93 89 79 95 77 84 57 96 77 32 11 8 21 72 71 20 20 6 5 5 24 75 73 69 33 96 100 100 100 100 98 59 64 100 83 18 98 84 65 97 100 70 98